Overview Statistics Trail Chart Weather Telemetry Raw packets
 

This is the latest recevied weather packets stored in our database for station/object WC4PEM-4. If no packets are shown the sender has not sent any weather packets the latest 10 day(s).

<< 152 153 154 155 156 157 158 >>
Time Temp. Humidity Pressure Rain* Wind** Luminosity Snow
1787767293 33.33° C 55% 1015.9 hPa 0 mm - - -
1787766993 33.89° C 54% 1015.9 hPa 0 mm - - -
1787766694 33.89° C 54% 1016 hPa 0 mm - - -
1787766394 33.33° C 54% 1016.2 hPa 0 mm - - -
1787766094 33.33° C 56% 1016.3 hPa 0 mm - - -
1787765794 33.33° C 55% 1016.3 hPa 0 mm - - -
1787765494 32.78° C 55% 1016.5 hPa 0 mm - - -
1787765194 32.78° C 55% 1016.7 hPa 0 mm - - -
1787764894 32.78° C 58% 1016.7 hPa 0 mm - - -
1787764594 32.22° C 58% 1016.8 hPa 0 mm - - -
1787764294 32.22° C 58% 1017 hPa 0 mm - - -
1787763994 32.22° C 58% 1017 hPa 0 mm - - -
1787763725 32.22° C 60% 1017 hPa 0 mm - - -
1787763694 32.22° C 60% 1017 hPa 0 mm - - -
1787763394 31.67° C 59% 1017.1 hPa 0 mm - - -
1787763094 31.67° C 61% 1017.3 hPa 0 mm - - -
1787762794 31.67° C 62% 1017.3 hPa 0 mm - - -
1787762494 32.22° C 60% 1017.3 hPa 0 mm - - -
1787762194 32.22° C 62% 1017.3 hPa 0 mm - - -
1787761894 32.22° C 62% 1017.4 hPa 0 mm - - -
1787761594 32.78° C 61% 1017.3 hPa 0 mm - - -
1787761294 32.78° C 61% 1017.5 hPa 0 mm - - -
1787760994 32.78° C 63% 1017.4 hPa 0 mm - - -
1787760694 32.22° C 65% 1017.5 hPa 0 mm - - -
1787760488 31.67° C 66% 1017.4 hPa 0 mm - - -

* Rain latest hour (hover to see other rain measurements)
** Current wind speed in m/s (hover to see current wind gust speed)